• Processing (Info)

  • MPEC 2001-X24 : 2001 XQ

    The following Minor Planet Electronic Circular may be linked-to from your own Web pages, but must not otherwise be redistributed electronically.

    A form allowing access to any MPEC is at the bottom of this page.


    Read MPEC 2001-X23 Read MPEC 2001-X25


    M.P.E.C. 2001-X24                                Issued 2001 Dec. 7, 23:11 UT
    
         The Minor Planet Electronic Circulars contain information on unusual
             minor planets and routine data on comets.  They are published
       on behalf of Commission 20 of the International Astronomical Union by the
              Minor Planet Center, Smithsonian Astrophysical Observatory,
                              Cambridge, MA 02138, U.S.A.
    
                 Prepared using the Tamkin Foundation Computer Network
    
                                  MPC@CFA.HARVARD.EDU
              URL http://cfa-www.harvard.edu/iau/mpc.html  ISSN 1523-6714
    
                                        2001 XQ
    
    Observations:
         K01X00Q* C2001 12 06.16208 02 23 56.39 +13 13 27.4          15.6        704
         K01X00Q  C2001 12 06.17715 02 24 07.98 +13 06 57.3          15.5        704
         K01X00Q  C2001 12 06.20731 02 24 31.10 +12 53 54.9          15.5        704
         K01X00Q  C2001 12 07.08145 02 36 14.74 +06 31 38.4          16.1        704
         K01X00Q  C2001 12 07.08269 02 36 15.64 +06 31 06.2          15.8        704
         K01X00Q  C2001 12 07.09674 02 36 26.32 +06 24 56.1          15.9        704
         K01X00Q  C2001 12 07.09768 02 36 27.05 +06 24 31.1          15.7        704
         K01X00Q  C2001 12 07.11198 02 36 37.85 +06 18 15.2          15.4        704
         K01X00Q  C2001 12 07.11273 02 36 38.45 +06 17 55.2          15.8        704
         K01X00Q  C2001 12 07.12722 02 36 49.33 +06 11 33.9          15.4        704
         K01X00Q  C2001 12 07.12820 02 36 50.14 +06 11 07.1          15.7        704
         K01X00Q  C2001 12 07.13522 02 36 55.44 +06 08 03.1          15.3        704
         K01X00Q  C2001 12 07.13708 02 36 56.83 +06 07 14.4          15.2        704
         K01X00Q  C2001 12 07.15019 02 37 06.68 +06 01 28.0          15.3        704
         K01X00Q  C2001 12 07.15232 02 37 08.28 +06 00 31.5          15.3        704
         K01X00Q  C2001 12 07.16517 02 37 17.90 +05 54 52.1          15.1        704
         K01X00Q  C2001 12 07.16749 02 37 19.64 +05 53 50.5          15.1        704
         K01X00Q  C2001 12 07.18015 02 37 29.14 +05 48 16.7          15.1        704
         K01X00Q  C2001 12 07.18392 02 37 31.99 +05 46 36.3          15.1        704
         K01X00Q  C2001 12 07.19515 02 37 40.38 +05 41 40.7          15.4        704
         K01X00Q  C2001 12 07.19929 02 37 43.49 +05 39 51.7          15.4        704
         K01X00Q  C2001 12 07.21577 02 37 55.81 +05 32 37.7          15.6        704
         K01X00Q  C2001 12 07.23073 02 38 07.04 +05 26 02.6          15.1        704
         K01X00Q  C2001 12 07.24586 02 38 18.40 +05 19 23.6          15.0        704
         K01X00Q  C2001 12 07.26154 02 38 30.20 +05 12 30.0          15.3        704
         K01X00Q  C2001 12 07.27688 02 38 41.77 +05 05 45.3          15.0        704
         K01X00Q  C2001 12 07.86924 02 46 28.71 +00 46 35.7          15.5 R      946
         K01X00Q  C2001 12 07.86955 02 46 28.93 +00 46 28.0          15.5 R      946
         K01X00Q  C2001 12 07.86987 02 46 29.16 +00 46 20.0          15.4 R      946
         K01X00Q  C2001 12 07.87016 02 46 29.38 +00 46 12.9          15.5 R      946
         K01X00Q  C2001 12 07.94098 02 47 21.18 +00 15 20.1          15.0 V      611
         K01X00Q  C2001 12 07.94313 02 47 22.79 +00 14 23.8                      611
         K01X00Q  C2001 12 07.94398 02 47 23.43 +00 14 01.1                      611
    
    Observer details:
    611 Starkenburg.  Observers M. Busch, R. Stoss.  Measurer R. Stoss.
        0.45-m f/4.4 reflector + CCD.
    704 Lincoln Laboratory ETS, New Mexico.  Observers M. Blythe, F. Shelly,
        M. Bezpalko, R. Huber, L. Manguso, S. Adams, J. Piscitelli.  Measurers
        J. Stuart, R. Sayer, J. B. Evans, H. Viggh.  1.0-m f/2.15 reflector + CCD.
    946 Ametlla de Mar.  Observer J. Nomen.  0.40-m f/2.0 Schmidt + CCD.
    
    Orbital elements:
    2001 XQ                                                              PHA 0.049D
    Epoch 2001 Nov. 27.0 TT = JDT 2452240.5                 MPC
    M 357.51076              (2000.0)            P               Q
    n   0.14350909     Peri.  190.02543     +0.16896795     -0.87214702
    a   3.6131261      Node   251.44494     +0.93451290     +0.28982167
    e   0.7114739      Incl.   28.96763     +0.31326580     -0.39416111
    P   6.87           H   19.6           G   0.15
    From 33 observations 2001 Dec. 6-7.
    
    Ephemeris:
    2001 XQ                  a,e,i = 3.61, 0.71, 29                  q = 1.0425
    Date    TT    R. A. (2000) Decl.     Delta      r     Elong.  Phase     V
    2001 12 07    02 35.09   +07 08.7    0.077    1.048   143.1    34.4    15.6
    2001 12 08    02 48.13   -00 08.4    0.078    1.046   140.8    36.5    15.6
    2001 12 09    03 00.78   -07 09.0    0.080    1.045   137.6    39.4    15.8
    2001 12 10    03 12.97   -13 38.5    0.083    1.044   133.9    42.8    16.0
    2001 12 11    03 24.65   -19 28.3    0.088    1.044   130.1    46.2    16.2
    2001 12 12    03 35.79   -24 35.2    0.094    1.043   126.5    49.4    16.4
    2001 12 13    03 46.38   -29 00.5    0.100    1.043   123.1    52.3    16.6
    2001 12 14    03 56.42   -32 47.8    0.107    1.042   120.1    54.8    16.8
    2001 12 15    04 05.90   -36 01.7    0.115    1.043   117.5    56.9    17.1
    2001 12 16    04 14.84   -38 46.8    0.123    1.043   115.2    58.7    17.3
    2001 12 17    04 23.26   -41 07.7    0.132    1.043   113.2    60.1    17.4
    2001 12 18    04 31.18   -43 08.1    0.141    1.044   111.5    61.3    17.6
    2001 12 19    04 38.62   -44 51.3    0.150    1.045   110.0    62.3    17.8
    2001 12 20    04 45.63   -46 20.1    0.159    1.046   108.6    63.1    17.9
    2001 12 21    04 52.21   -47 36.8    0.168    1.047   107.5    63.7    18.1
    2001 12 22    04 58.40   -48 43.2    0.178    1.048   106.5    64.1    18.2
    2001 12 23    05 04.23   -49 40.9    0.187    1.050   105.6    64.5    18.3
    2001 12 24    05 09.71   -50 31.1    0.197    1.051   104.9    64.7    18.5
    2001 12 25    05 14.88   -51 14.9    0.206    1.053   104.2    64.8    18.6
    2001 12 26    05 19.76   -51 53.2    0.216    1.056   103.6    64.9    18.7
    2001 12 27    05 24.36   -52 26.8    0.226    1.058   103.1    64.9    18.8
    
    2002 01 06    05 59.15   -55 15.8    0.321    1.091   100.9    62.3    19.5
    2002 01 16    06 21.64   -55 25.4    0.413    1.139   101.3    57.9    20.1
    2002 01 26    06 38.84   -54 13.4    0.500    1.200   103.0    53.1    20.4
    2002 02 05    06 54.10   -52 06.9    0.583    1.272   105.4    48.4    20.8
    2002 02 15    07 09.12   -49 18.6    0.664    1.351   108.1    44.0    21.1
    2002 02 25    07 24.78   -46 00.6    0.746    1.435   110.7    40.2    21.3
    2002 03 07    07 41.24   -42 25.3    0.832    1.522   112.9    36.9    21.6
    2002 03 17    07 58.45   -38 44.1    0.925    1.612   114.2    34.3    21.9
    
    Timothy B. Spahr             (C) Copyright 2001 MPC           M.P.E.C. 2001-X24
    

    Read MPEC 2001-X23 Read MPEC 2001-X25


    MPEC number:

    Enter an MPEC number in one of the following forms:

    • 1997-B01 (the full form)
    • J97B01 (the packed version of the full form)
    • B01 (the abbreviated form)